Regional Weather Roundup
Issued by NWS

Home | Current Version | Previous Version | Graphics & Text | Print | Product List | Glossary Off
Versions: 1 2 3 4 5 6 7 8 9 10 11 12 13 14 15 16 17 18 19 20 21 22 23 24 25 26 27 28 29 30 31 32 33 34 35 36 37 38 39 40 41 42 43 44 45 46 47 48 49 50

000
ASUS43 KDTX 260210
RWRMI
MICHIGAN HOURLY REGIONAL WEATHER ROUNDUP
NATIONAL WEATHER SERVICE DETROIT/PONTIAC MI
1000 PM EDT SUN JUN 25 2017

NOTE: "FAIR" INDICATES FEW OR NO CLOUDS BELOW 12,000 FEET WITH NO
SIGNIFICANT WEATHER AND/OR OBSTRUCTION TO VISIBILITY.

MIZ047>049-052>055-059>063-066>070-074>076-081>083-260300-
SOUTHEAST LOWER MICHIGAN

CITY           SKY/WX    TMP DP  RH WIND       PRES   REMARKS
ADRIAN         PTCLDY    61  45  55 W3        30.07R
ALMA           CLOUDY    61  53  74 SW5       30.03S
ANN ARBOR      CLEAR     57  46  66 W5        30.04R
BAD AXE        RAIN      57  55  90 SW8       30.00R
CARO           CLOUDY    59  53  80 SW5       30.00S
DETROIT CITY   MOCLDY    63  51  65 NW3       30.04R
DETROIT        PTCLDY    64  46  52 W7        30.05R
FLINT          MOCLDY    61  50  67 W8        30.03R
GROSSE ILE     CLEAR     64  46  52 W5        30.03R
HILLSDALE      PTCLDY    59  43  55 W3        30.06S
HOWELL         MOCLDY    60  46  59 W3        30.04S

CITY           SKY/WX    TMP DP  RH WIND       PRES   REMARKS
JACKSON        CLEAR     61  45  55 W6        30.06R
LAMBERTVILLE   CLEAR     60  47  62 CALM      30.06R
LANSING        PTCLDY    62  46  55 W6        30.05S
LAPEER         CLOUDY    58  55  90 CALM      30.03S
MASON          CLEAR     61  48  62 CALM      30.05S
MONROE         CLEAR     60  47  62 W5        30.04S
MT. CLEMENS    MOCLDY    61  53  74 W6        30.01R
PONTIAC        MOCLDY    60  54  80 W6        30.03R
PORT HOPE        N/A     60  55  83 VRB5      29.96S
PORT HURON     CLOUDY    59  50  72 CALM      30.02S
TRI CITIES     CLOUDY    61  54  77 W7        30.02R
MIDLAND        CLOUDY    61  51  67 W3        30.01S
TROY           CLOUDY    63  52  68 CALM      30.05S
SAGINAW HB     CLOUDY    61  48  63 W7        30.01S
$$
MIZ043>046-050>051-056>058-064>065-071>073-077>080-260300-
SOUTHWEST LOWER MICHIGAN

CITY           SKY/WX    TMP DP  RH WIND       PRES   REMARKS
BATTLE CREEK   PTCLDY    60  47  61 SW6       30.07S
BENTON HARBOR  CLOUDY    65  51  60 W8        30.07S
BIG RAPIDS     CLOUDY    58  51  76 SW3       30.01S
COLDWATER      PTCLDY    61  44  53 W6        30.07S
FREMONT        FAIR      58  52  80 SW6       30.02F
HOLLAND        MOCLDY    62  53  72 W7        30.06S
GRAND RAPIDS   PTCLDY    61  51  70 W9        30.04S
IONIA          CLOUDY    60  51  73 SW6       30.04S
KALAMAZOO      CLEAR     63  45  51 W6        30.07S
LUDINGTON      CLOUDY    60  55  82 W7        30.01F
MARSHALL       PTCLDY    59  46  62 W3        30.06S
MOUNT PLEASANT CLOUDY    60  52  72 CALM      30.01S
MUSKEGON       PTCLDY    60  53  77 SW6       30.04S
SOUTH HAVEN    CLOUDY    65  53  63 W5        30.06S
$$
MIZ016>042-260300-
NORTHERN LOWER MICHIGAN

CITY           SKY/WX    TMP DP  RH WIND       PRES   REMARKS
ALPENA         CLOUDY    58  57  97 CALM      29.98S
BEAVER ISLAND  LGT RAIN  55  54  95 CALM      29.98F
BELLAIRE       PTCLDY    54  51  90 CALM      30.00S
CADILLAC       MOCLDY    56  51  85 W3        30.01R
CHARLEVOIX     MOCLDY    58  56  93 W5        30.02S
FRANKFORT      CLOUDY    59  52  78 SW3       29.99F
GAYLORD        CLOUDY    57  48  72 CALM      30.00R
GRAYLING       MOCLDY    56  51  82 W3        30.00S
HARBOR SPRINGS CLOUDY    57  56  94 CALM      29.99S
HOUGHTON LAKE  CLOUDY    60  49  66 W10       30.00S
MANISTEE       LGT RAIN  56  54  93 W8        30.01S
OSCODA         CLOUDY    58  56  92 W10       29.98R
PELLSTON       MOCLDY    58  52  80 SW3       29.99S
ROGERS CITY    CLOUDY    57  54  89 CALM      30.00R
TRAVERSE CITY  MOCLDY    60  51  72 SW5       29.98S
$$
MIZ007>008-015-260300-
EASTERN UPPER MICHIGAN

CITY           SKY/WX    TMP DP  RH WIND       PRES   REMARKS
KINROSS        CLOUDY    57  51  80 N5        29.98S
MACKINAC ISLAN CLOUDY    56  56 100 W6        29.98S
NEWBERRY         N/A     54  53  97 CALM      29.97S FOG
S. S. MARIE    PTCLDY    57  52  83 CALM      29.97S
MUNISING         N/A     51  48  89 CALM      29.98F
$$
MIZ004>006-011>014-085-260300-
CENTRAL UPPER MICHIGAN

CITY           SKY/WX    TMP DP  RH WIND       PRES   REMARKS
MANISTIQUE     CLOUDY    58  55  89 CALM      29.96F
ESCANABA       LGT RAIN  54  52  93 N7        29.98F
MENOMINEE      MOCLDY    57  54  89 NW6       29.99F
SAWYER-GWINN   RAIN      52  50  93 NW3       30.00F
$$
MIZ001>003-009>011-084-260300-
WESTERN UPPER MICHIGAN

CITY           SKY/WX    TMP DP  RH WIND       PRES   REMARKS
IRON MOUNTAIN  LGT RAIN  54  50  86 NW3       29.99F
HOUGHTON       RAIN      50  48  93 NW8       30.00S FOG
COPPER HARBOR    N/A     52  49  89 CALM      29.99S
IRONWOOD       CLOUDY    50  47  89 W8        30.05S
$$

ABBREVIATIONS USED IN REMARKS
   TC - TEMPERATURE IN CELSIUS
  WCI - WIND CHILL INDEX
   HX - HEAT INDEX
  VSB - VISIBILITY




USA.gov is the U.S. government's official web portal to all federal, state and local government web resources and services.